Weather History for Del Bajio, Mexico

Change the Weather History Date:

Wednesday, December 19, 2012

  Actual Average Record
Temperature  
Mean Temperature 63 °F -  
Max Temperature 80 °F 73 °F 84 °F (2007)
Min Temperature 46 °F 41 °F 32 °F (2003)
Degree Days  
Heating Degree Days 2    
Growing Degree Days 13 (Base 50)    
Moisture  
Dew Point 40 °F    
Average Humidity 48    
Maximum Humidity 76    
Minimum Humidity 20    
Precipitation  
Precipitation 0.00 in - - ()
Sea Level Pressure  
Sea Level Pressure 30.08 in    
Wind  
Wind Speed 4 mph ()    
Max Wind Speed 15 mph    
Max Gust Speed -    
Visibility 7.8 miles    
Events      
Averages and records for this station are not official NWS values.
T = Trace of Precipitation, MM = Missing Value Source: Averaged Metar Reports

Daily Weather History Graph

Daily Weather History Graph

Search for Another Location

Airport:

Trip Planner

Search our weather history database for the weather conditions in past years. The results will help you decide how hot, cold, wet, or windy it might be!

Date:

Astronomy

Dec. 19, 2012 Rise Set
Actual Time 7:17 AM CST 6:09 PM CST
Civil Twilight 6:53 AM CST 6:33 PM CST
Nautical Twilight 6:25 AM CST 7:01 PM CST
Astronomical Twilight 5:58 AM CST 7:28 PM CST
Moon 12:16 PM CST (12/19) No Moon Set
Length of Visible Light 11h 39m
Length of Day
10h 51m
Waxing Crescent, 45% of the Moon is Illuminated
Dec 19
Waxing Crescent
Dec 19
First Quarter
Dec 28
Full
Jan 4
Last Quarter
Jan 11
New

Hourly Weather History & Observations

Time (CST) Temp. Dew Point Humidity Pressure Visibility Wind Dir Wind Speed Gust Speed Precip Events Conditions
12:45 AM 53.6 °F 39.2 °F 58% 30.18 in 8.0 mi NNE 6.9 mph - N/A   Clear
1:50 AM 51.8 °F 44.6 °F 76% 30.18 in 8.0 mi Calm Calm - N/A   Clear
2:45 AM 50.0 °F 37.4 °F 62% 29.82 in 8.0 mi Calm Calm - N/A   Clear
3:46 AM 51.8 °F 39.2 °F 62% 30.15 in 8.0 mi NNE 6.9 mph - N/A   Clear
5:50 AM 46.4 °F 37.4 °F 71% 29.91 in 8.0 mi Calm Calm - N/A   Clear
6:48 AM 48.2 °F 39.2 °F 71% 30.19 in 6.0 mi Calm Calm - N/A   Clear
7:46 AM 48.2 °F 39.2 °F 71% 30.20 in 6.0 mi Calm Calm - N/A   Clear
8:42 AM 57.2 °F 48.2 °F 72% 29.96 in 7.0 mi Calm Calm - N/A   Clear
9:49 AM 66.2 °F 48.2 °F 52% 30.27 in 6.0 mi Calm Calm - N/A   Clear
10:52 AM 69.8 °F 48.2 °F 46% 30.24 in 6.0 mi Calm Calm - N/A   Clear
11:45 AM 71.6 °F 46.4 °F 41% 29.92 in 6.0 mi West 8.1 mph - N/A   Partly Cloudy
12:41 PM 75.2 °F 41.0 °F 29% 30.18 in 7.0 mi WSW 13.8 mph - N/A   Scattered Clouds
1:44 PM 78.8 °F 37.4 °F 23% 30.15 in 8.0 mi Calm Calm - N/A   Partly Cloudy
2:43 PM 80.6 °F 35.6 °F 20% 29.75 in 10.0 mi West 13.8 mph - N/A   Scattered Clouds
3:49 PM 80.6 °F 35.6 °F 20% 30.12 in 10.0 mi WSW 13.8 mph - N/A   Scattered Clouds
4:44 PM 78.8 °F 37.4 °F 23% 30.12 in 10.0 mi SW 15.0 mph - N/A   Scattered Clouds
5:47 PM 73.4 °F 37.4 °F 27% 29.81 in 10.0 mi SW 10.4 mph - N/A   Scattered Clouds
6:45 PM 66.2 °F 37.4 °F 35% 30.15 in 8.0 mi SW 3.5 mph - N/A   Scattered Clouds
7:46 PM 62.6 °F 39.2 °F 42% 30.04 in 8.0 mi Calm Calm - N/A   Scattered Clouds
9:41 PM 57.2 °F 37.4 °F 48% 30.21 in 8.0 mi NNW 5.8 mph - N/A   Clear
10:41 PM 57.2 °F 37.4 °F 48% 30.21 in 8.0 mi NW 5.8 mph - N/A   Clear
11:41 PM 53.6 °F 37.4 °F 54% 29.92 in 8.0 mi Calm Calm - N/A   Clear